Regional Weather Roundup
Issued by NWS State College, PA

Home | Current Version | Previous Version | Graphics & Text | Print | Product List | Glossary Off
Versions: 1 2 3 4 5 6 7 8 9 10 11 12 13 14 15 16 17 18 19 20 21 22 23 24 25 26 27 28 29 30 31 32 33 34 35 36 37 38 39 40 41 42 43 44 45 46 47 48 49 50

000
ASUS41 KCTP 060303
RWRCTP

REGIONAL WEATHER ROUNDUP
NATIONAL WEATHER SERVICE STATE COLLEGE PA
1100 PM EDT SUN JUL 05 2015

Note: "fair" indicates few or no clouds below 12,000 feet with no
significant weather and/or obstructions to visibility.

* = STATION THAT DOES NOT REPORT PRECIPITATION /E.G. RAIN...SNOW...ETC/
    THUNDER OR FOG.

PAZ002>004-007>009-013>016-020>023-029>032-060400-
WESTERN PENNSYLVANIA

CITY           SKY/WX    TMP DP  RH WIND       PRES   REMARKS
ERIE           PTCLDY    66  57  72 CALM      30.11S
MEADVILLE      MOCLDY    68  59  73 CALM      30.14S
FRANKLIN*      MOCLDY    66  55  68 E5        30.16R
NEW CASTLE     MOCLDY    66  63  90 CALM      30.12S
BEAVER COUNTY  NOT AVBL
BUTLER*        CLOUDY    70  61  73 E7        30.13S
PITTSBURGH INT CLOUDY    73  59  61 E5        30.10S
PITTSBURGH     CLOUDY    73  61  65 E8        30.10R
INDIANA*       PTCLDY    72  64  78 E5        30.16F
LATROBE        NOT AVBL
WASHINGTON CO* NOT AVBL
$$

PAZ004>006-010>012-017>019-024>028-033>037-041-042-045-046-049>053-060400-
CENTRAL PENNSYLVANIA

CITY           SKY/WX    TMP DP  RH WIND       PRES   REMARKS
BRADFORD       MOCLDY    60  58  92 CALM      30.19R
DUBOIS         CLOUDY    67  58  72 E5        30.17R
CLEARFIELD     CLOUDY    64  60  87 N3        30.17R
JOHNSTOWN      CLOUDY    68  62  81 SE6       30.17F
ALTOONA        CLOUDY    69  65  86 CALM      30.17S
STATE COLLEGE  CLOUDY    67  62  84 CALM      30.16S
WILLIAMSPORT   MOCLDY    66  60  81 CALM      30.13S
SELINSGROVE    CLOUDY    65  64  97 CALM      30.15R FOG
FT INDIANTOWN  MOCLDY    66  64  93 CALM      30.15R
CAPITAL CITY   CLOUDY    71  65  81 CALM      30.14R
HARRISBURG     CLOUDY    73  66  78 CALM      30.13R
YORK           CLOUDY    72  67  84 SE5       30.14R
$$

PAZ038>040-043-044-047-048-054-055-060>062-067>071-060400-
EASTERN PENNSYLVANIA

CITY           SKY/WX    TMP DP  RH WIND       PRES   REMARKS
SCRANTON       PTCLDY    67  58  72 E6        30.16S
MOUNT POCONO   PTCLDY    59  56  89 CALM      30.21R
ALLENTOWN      MOCLDY    68  64  87 N3        30.14S
QUAKERTOWN*    CLOUDY    68  66  94 CALM      30.16S
READING        MOCLDY    72  66  81 CALM      30.13S
LANCASTER      MOCLDY    71  66  84 E3        30.14S
COATESVILLE    MOCLDY    70  68  94 CALM      30.17R
POTTSTOWN      MOCLDY    71  67  87 CALM      30.16R
BLUE BELL      CLOUDY    70  68  94 CALM      30.15R
DOYLESTOWN     CLOUDY    68  65  90 CALM      30.15R
WILLOW GROVE   NOT AVBL
NORTH PHILA    CLOUDY    77  64  64 SW5       30.16R
PHILADELPHIA   MOCLDY    76  67  73 SW6       30.15R
$$


USA.gov is the U.S. government's official web portal to all federal, state and local government web resources and services.